Tracking 33744 objects as of 12-Apr-2026
HD Live streaming from Space Station
objects crossing your sky now

STARLINK-36868

Track STARLINK-36868 now!
10-day predictions
STARLINK-36868 is classified as:


NORAD ID: 68120
Int'l Code: 2026-044V
Perigee: 471.7 km
Apogee: 473.7 km
Inclination: 97.3 °
Period: 93.9 minutes
Semi major axis: 6843 km
RCS: Unknown
Launch date: March 8, 2026
Source: United States (US)
Launch site: AIR FORCE WESTERN TEST RANGE (AFWTR)
Your satellite tracking list
Your tracking list is empty




NASA's NSSDC Master Catalog

Two Line Element Set (TLE):
1 68120U 26044V   26102.14433525  .00020624  00000-0  63934-3 0  9993
2 68120  97.2848  63.4282 0001469  96.4559 263.6851 15.33447703  6712
Source of the keplerian elements: AFSPC